Regional Weather Roundup
Issued by NWS Goodland, KS

Home | Current Version | Previous Version | Text Only | Print | Product List | Glossary Off
Versions: 1 2 3 4 5 6 7 8 9 10 11 12 13 14 15 16 17 18 19 20 21 22 23 24 25 26 27 28 29 30 31 32 33 34 35 36 37 38 39 40 41 42 43 44 45 46 47 48 49 50

000
ASUS43 KGLD 292059
RWRGLD

GOODLAND FORECAST AREA HOURLY WEATHER ROUNDUP
NATIONAL WEATHER SERVICE GOODLAND KS
300 PM MDT FRI AUG 29 2014

...OFFICIAL OBSERVATIONS...

CITY           SKY/WX    TMP DP  RH WIND       PRES   REMARKS
GOODLAND KS    SUNNY     84  45  25 N17G23    29.96F
HILL CITY KS   SUNNY     86  54  33 NW12      29.86F
IMPERIAL NEB   MOSUNNY   84  53  34 N14       29.93F
MCCOOK NEB     SUNNY     87  51  28 N7        29.88F
AKRON CO       MOSUNNY   81  43  26 N13G20    30.03F
BURLINGTON CO  SUNNY     83  46  27 N13G21    30.00F
LIMON CO       SUNNY     80  41  24 NE6       30.09F
$$

...UNOFFICIAL OBSERVATIONS...

CITY           SKY/WX    TMP DP  RH WIND       PRES   REMARKS
COLBY KS       SUNNY     84  55  37 N7        29.93S
GOVE KS          N/A     85  32  15 CALM        N/A
NORTON KS      MOSUNNY   88  46  23 NW9G16    29.86S
SHARON SPRINGS   N/A     85  53  32 N12G20      N/A
WAKEENEY KS      N/A     85  49  28 MISG        N/A
KIT CARSON CO    N/A     85  45  24 N6G14       N/A
YUMA CO          N/A     82  45  26 NE12        N/A
$$


USA.gov is the U.S. government's official web portal to all federal, state and local government web resources and services.